New Ulm, MN

10:15 PM CST on January 21, 2017 (GMT -0600)
New Ulm Municipal

Weather History for KULM - February, 2013

Change the Weather History Date:

Tuesday, February 12, 2013

  Actual Average Record
Temperature  
Mean Temperature 24 °F -  
Max Temperature 33 °F 28 °F 62 °F (1990)
Min Temperature 15 °F 8 °F -25 °F (1988)
Degree Days  
Heating Degree Days 41    
Moisture  
Dew Point 18 °F    
Average Humidity 79    
Maximum Humidity 86    
Minimum Humidity 69    
Precipitation  
Precipitation 0.00 in - - ()
Sea Level Pressure  
Sea Level Pressure 29.91 in    
Wind  
Wind Speed 9 mph (SW)    
Max Wind Speed 14 mph    
Max Gust Speed 18 mph    
Visibility 10 miles    
Events      
Averages and records for this station are not official NWS values.
T = Trace of Precipitation, MM = Missing Value Source: NWS Daily Summary

Daily Weather History Graph

Daily Weather History Graph

Search for Another Location

Airport or City:

Trip Planner

Search our weather history database for the weather conditions in past years. The results will help you decide how hot, cold, wet, or windy it might be!

Date:

Astronomy

Feb. 12, 2013 Rise Set
Actual Time 7:21 AM CST 5:43 PM CST
Civil Twilight 6:51 AM CST 6:13 PM CST
Nautical Twilight 6:17 AM CST 6:47 PM CST
Astronomical Twilight 5:43 AM CST 7:21 PM CST
Moon 8:11 AM CST (2/12) 8:54 PM CST (2/12)
Length of Visible Light 11h 21m
Length of Day
10h 21m
Waxing Crescent, 7% of the Moon is Illuminated
Feb 12
Waxing Crescent
Feb 17
First Quarter
Feb 25
Full
Mar 4
Last Quarter
Mar 11
New

Hourly Weather History & Observations

Time (CST) Temp. Windchill Dew Point Humidity Pressure Visibility Wind Dir Wind Speed Gust Speed Precip Events Conditions
12:13 AM 19.4 °F 7.9 °F 14.0 °F 80% 30.05 in 10.0 mi West 10.4 mph - N/A   Clear
12:33 AM 19.4 °F 7.9 °F 12.2 °F 74% 30.05 in 10.0 mi West 10.4 mph - N/A   Clear
12:52 AM 17.6 °F 8.2 °F 12.2 °F 79% 30.06 in 10.0 mi WNW 6.9 mph - N/A   Clear
1:13 AM 19.4 °F 12.8 °F 14.0 °F 80% 30.05 in 10.0 mi West 4.6 mph - N/A   Mostly Cloudy
1:33 AM 19.4 °F 10.4 °F 14.0 °F 80% 30.05 in 10.0 mi WSW 6.9 mph - N/A   Overcast
1:53 AM 19.4 °F 14.3 °F 15.8 °F 86% 30.05 in 10.0 mi WSW 3.5 mph - N/A   Overcast
2:13 AM 19.4 °F 11.5 °F 15.8 °F 86% 30.05 in 10.0 mi SW 5.8 mph - N/A   Overcast
2:33 AM 19.4 °F 11.5 °F 15.8 °F 86% 30.04 in 10.0 mi SSW 5.8 mph - N/A   Overcast
2:52 AM 19.4 °F 9.5 °F 15.8 °F 86% 30.04 in 10.0 mi SSW 8.1 mph - N/A   Overcast
3:13 AM 21.2 °F 11.7 °F 15.8 °F 80% 30.02 in 10.0 mi SSW 8.1 mph - N/A   Overcast
3:33 AM 21.2 °F 11.7 °F 15.8 °F 80% 30.02 in 10.0 mi SSW 8.1 mph - N/A   Overcast
3:53 AM 21.2 °F 11.7 °F 15.8 °F 80% 30.01 in 10.0 mi SSW 8.1 mph - N/A   Overcast
4:13 AM 21.2 °F 12.6 °F 15.8 °F 80% 30.00 in 10.0 mi South 6.9 mph - N/A   Mostly Cloudy
4:32 AM 19.4 °F 9.5 °F 15.8 °F 86% 30.00 in 10.0 mi South 8.1 mph - N/A   Scattered Clouds
4:53 AM 19.4 °F 8.6 °F 15.8 °F 86% 29.98 in 10.0 mi South 9.2 mph - N/A   Clear
5:13 AM 19.4 °F 8.6 °F 15.8 °F 86% 29.98 in 10.0 mi South 9.2 mph - N/A   Clear
5:33 AM 17.6 °F 6.4 °F 14.0 °F 86% 29.97 in 10.0 mi South 9.2 mph - N/A   Clear
5:53 AM 17.6 °F 8.2 °F 14.0 °F 86% 29.96 in 10.0 mi South 6.9 mph - N/A   Clear
6:13 AM 17.6 °F 8.2 °F 12.2 °F 79% 29.96 in 10.0 mi SSE 6.9 mph - N/A   Clear
6:32 AM 17.6 °F 8.2 °F 14.0 °F 86% 29.95 in 10.0 mi South 6.9 mph - N/A   Clear
6:53 AM 15.8 °F 6.1 °F 12.2 °F 86% 29.95 in 10.0 mi South 6.9 mph - N/A   Clear
7:13 AM 15.8 °F 3.4 °F 12.2 °F 86% 29.95 in 10.0 mi South 10.4 mph - N/A   Clear
7:32 AM 17.6 °F 5.7 °F 12.2 °F 79% 29.95 in 10.0 mi South 10.4 mph - N/A   Clear
7:53 AM 17.6 °F 4.3 °F 14.0 °F 86% 29.95 in 10.0 mi South 12.7 mph - N/A   Clear
8:13 AM 19.4 °F 7.2 °F 15.8 °F 86% 29.95 in 10.0 mi South 11.5 mph - N/A   Scattered Clouds
8:32 AM 19.4 °F 6.6 °F 15.8 °F 86% 29.94 in 10.0 mi South 12.7 mph - N/A   Mostly Cloudy
8:53 AM 21.2 °F 10.1 °F 17.6 °F 86% 29.94 in 10.0 mi SSW 10.4 mph - N/A   Mostly Cloudy
9:13 AM 23.0 °F 12.4 °F 17.6 °F 80% 29.93 in 10.0 mi SSW 10.4 mph - N/A   Mostly Cloudy
9:32 AM 24.8 °F 13.4 °F 17.6 °F 74% 29.93 in 10.0 mi SSW 12.7 mph 17.3 mph N/A   Mostly Cloudy
9:53 AM 24.8 °F 14.0 °F 19.4 °F 80% 29.92 in 10.0 mi SSW 11.5 mph - N/A   Scattered Clouds
10:13 AM 26.6 °F 15.2 °F 19.4 °F 74% 29.91 in 10.0 mi SSW 13.8 mph 18.4 mph N/A   Clear
10:33 AM 26.6 °F 16.8 °F 19.4 °F 74% 29.91 in 10.0 mi SSW 10.4 mph - N/A   Scattered Clouds
10:53 AM 28.4 °F 18.5 °F 19.4 °F 69% 29.90 in 10.0 mi SSW 11.5 mph - N/A   Scattered Clouds
11:13 AM 28.4 °F 19.1 °F 21.2 °F 74% 29.90 in 10.0 mi SSW 10.4 mph - N/A   Scattered Clouds
11:32 AM 30.2 °F 23.4 °F 21.2 °F 69% 29.90 in 10.0 mi SW 6.9 mph - N/A   Clear
11:53 AM 30.2 °F 21.9 °F 21.2 °F 69% 29.89 in 10.0 mi SW 9.2 mph - N/A   Clear
12:13 PM 30.2 °F 21.9 °F 23.0 °F 75% 29.88 in 10.0 mi SW 9.2 mph - N/A   Clear
12:33 PM 32.0 °F 24.2 °F 23.0 °F 69% 29.87 in 10.0 mi SW 9.2 mph - N/A   Clear
12:53 PM 32.0 °F 25.6 °F 23.0 °F 69% 29.88 in 10.0 mi WSW 6.9 mph - N/A   Clear
1:12 PM 33.8 °F 25.3 °F 24.8 °F 70% 29.86 in 10.0 mi SSW 11.5 mph - N/A   Clear
1:33 PM 33.8 °F 26.4 °F 24.8 °F 70% 29.85 in 10.0 mi SW 9.2 mph - N/A   Clear
1:53 PM 33.8 °F 25.8 °F 24.8 °F 70% 29.85 in 10.0 mi WSW 10.4 mph - N/A   Clear
2:12 PM 33.8 °F 25.3 °F 24.8 °F 70% 29.84 in 10.0 mi SW 11.5 mph - N/A   Clear
2:33 PM 33.8 °F 25.8 °F 24.8 °F 70% 29.84 in 10.0 mi WSW 10.4 mph - N/A   Clear
2:53 PM 33.8 °F 26.4 °F 24.8 °F 70% 29.85 in 10.0 mi WSW 9.2 mph - N/A   Clear
3:12 PM 33.8 °F 25.8 °F 26.6 °F 75% 29.85 in 10.0 mi West 10.4 mph - N/A   Clear
3:33 PM 33.8 °F 24.3 °F 26.6 °F 75% 29.85 in 10.0 mi West 13.8 mph - N/A   Clear
3:53 PM 33.8 °F 25.3 °F 24.8 °F 70% 29.86 in 10.0 mi West 11.5 mph - N/A   Clear
4:12 PM 32.0 °F 22.1 °F 24.8 °F 75% 29.86 in 10.0 mi West 13.8 mph - N/A   Clear
4:33 PM 30.2 °F 20.2 °F 24.8 °F 80% 29.86 in 10.0 mi West 12.7 mph - N/A   Clear
4:53 PM 30.2 °F 20.8 °F 23.0 °F 75% 29.86 in 10.0 mi West 11.5 mph - N/A   Clear
5:12 PM 30.2 °F 21.3 °F 21.2 °F 69% 29.86 in 10.0 mi West 10.4 mph - N/A   Clear
5:33 PM 28.4 °F 19.1 °F 21.2 °F 74% 29.86 in 10.0 mi West 10.4 mph - N/A   Clear
5:53 PM 28.4 °F 19.7 °F 21.2 °F 74% 29.86 in 10.0 mi WSW 9.2 mph - N/A   Clear
6:12 PM 26.6 °F 18.2 °F 21.2 °F 80% 29.86 in 10.0 mi WSW 8.1 mph - N/A   Clear
6:33 PM 26.6 °F 18.2 °F 19.4 °F 74% 29.86 in 10.0 mi WSW 8.1 mph - N/A   Clear
6:53 PM 26.6 °F 19.1 °F 19.4 °F 74% 29.86 in 10.0 mi WSW 6.9 mph - N/A   Clear
7:13 PM 26.6 °F 19.1 °F 19.4 °F 74% 29.86 in 10.0 mi WSW 6.9 mph - N/A   Clear
7:33 PM 23.0 °F 15.8 °F 17.6 °F 80% 29.86 in 10.0 mi WSW 5.8 mph - N/A   Clear
7:53 PM 21.2 °F 12.6 °F 17.6 °F 86% 29.86 in 10.0 mi West 6.9 mph - N/A   Clear
8:13 PM 19.4 °F 10.4 °F 15.8 °F 86% 29.85 in 10.0 mi West 6.9 mph - N/A   Clear
8:33 PM 21.2 °F 11.7 °F 17.6 °F 86% 29.84 in 10.0 mi West 8.1 mph - N/A   Clear
8:53 PM 21.2 °F 10.9 °F 17.6 °F 86% 29.84 in 10.0 mi West 9.2 mph - N/A   Clear
9:13 PM 21.2 °F 11.7 °F 17.6 °F 86% 29.84 in 10.0 mi West 8.1 mph - N/A   Clear
9:33 PM 21.2 °F 12.6 °F 15.8 °F 80% 29.84 in 10.0 mi West 6.9 mph - N/A   Clear
9:52 PM 19.4 °F 8.6 °F 15.8 °F 86% 29.84 in 10.0 mi West 9.2 mph - N/A   Clear
10:13 PM 19.4 °F 9.5 °F 15.8 °F 86% 29.84 in 10.0 mi West 8.1 mph - N/A   Clear
10:33 PM 19.4 °F 10.4 °F 15.8 °F 86% 29.84 in 10.0 mi West 6.9 mph - N/A   Clear
10:52 PM 17.6 °F 8.2 °F 14.0 °F 86% 29.83 in 10.0 mi West 6.9 mph - N/A   Clear
11:13 PM 17.6 °F 8.2 °F 12.2 °F 79% 29.83 in 10.0 mi West 6.9 mph - N/A   Clear
11:33 PM 15.8 °F 5.1 °F 12.2 °F 86% 29.82 in 10.0 mi West 8.1 mph - N/A   Clear
11:52 PM 15.8 °F 5.1 °F 12.2 °F 86% 29.82 in 10.0 mi West 8.1 mph - N/A   Scattered Clouds